Location: Poughquag
(41.6090°N, 73.6820°W)
Time: 11:00:39
(UTC-04:00)

S-56A Canister/Altair - Pass Details

Date: 05 June 2020
Orbit: 633 x 2499 km, 38.9° (Epoch: 06 July)

Event Time Altitude Azimuth Distance (km) Brightness Sun altitude
Rises 06:33:38 0° 269° (W) 3,348 10.2 11.3°
Reaches altitude 10° 06:35:46 10° 267° (W) 2,568 9.7 11.7°
Maximum altitude 06:41:52 72° 184° (S) 1,216 8.7 12.8°
Drops below altitude 10° 06:51:13 10° 102° (ESE) 3,852 12.3 14.4°
Sets 06:55:06 0° 101° (E) 5,141 12.9 15.1°
